Regional Weather Roundup
Issued by NWS

Home | Current Version | Previous Version | Graphics & Text | Print | Product List | Glossary On
Versions: 1 2 3 4 5 6 7 8 9 10 11 12 13 14 15 16 17 18 19 20 21 22 23 24 25 26 27
000
ASUS45 KBOU 170307
RWRCO

WEATHER ROUNDUP FOR COLORADO
NATIONAL WEATHER SERVICE DENVER/BOULDER CO
900 PM MDT WED AUG 16 2017

NOTE: "FAIR" INDICATES FEW OR NO CLOUDS BELOW 12000 FEET WITH NO
SIGNIFICANT WEATHER AND/OR OBSTRUCTIONS TO VISIBILITY.

COZ001>005-013-030-031-170400-
...NORTHWEST COLORADO...

CITY           SKY/WX    TMP DP  RH WIND       PRES   REMARKS
CRAIG          FAIR      60  39  45 CALM      30.18R
HAYDEN         FAIR      61  36  39 S5        30.23R
MEEKER         FAIR      60  39  45 CALM      30.19R
RABBIT EARS PA FAIR      46  32  57 W10       30.48R
STEAMBOAT SPGS FAIR      60  41  49 NW3       30.24R
WALDEN         FAIR      50  41  71 SE7       30.34R
$$

COZ006>008-011-170400-
...WEST CENTRAL VALLEYS...

CITY           SKY/WX    TMP DP  RH WIND       PRES   REMARKS
GRAND JUNCTION FAIR      77  33  20 N9        30.05R
MONTROSE       FAIR      70  44  39 S3        30.14R
EAGLE          MOCLDY    67  39  35 CALM      30.23R
RIFLE          FAIR      77  33  20 CALM      30.12R
DELTA          FAIR      76  27  16 N8        30.09R
NUCLA          FAIR      72  21  15 NW3       30.17R
$$

COZ017>023-064>068-170400-
...SOUTHWEST COLORADO...

CITY           SKY/WX    TMP DP  RH WIND       PRES   REMARKS
DURANGO        FAIR      69  25  19 W6        30.20R
CORTEZ         FAIR      64  34  32 CALM      30.15R
PAGOSA SPRINGS FAIR      58  27  31 CALM      30.28R
TELLURIDE      FAIR      60  30  31 SE5       30.40R
WOLF CREEK PAS MOCLDY    45  28  53 S12       30.61S
$$

COZ009-010-012-014-032>034-037-058>063-170400-
...CENTRAL COLORADO...

CITY           SKY/WX    TMP DP  RH WIND       PRES   REMARKS
ASPEN          FAIR      56  39  53 S5        30.29R
BUENA VISTA    MOCLDY    59  33  38 E3        30.30R
COPPER MTN     MOCLDY    46  32  57 NW9       30.59R
BERTHOUD PASS  FAIR      36  32  87 NW24      30.58S
COTTONWOOD PAS MOCLDY    61  23  23 SW12G17   30.43R
GUNNISON       MOCLDY    62  31  31 N3        30.28R
KREMMLING      FAIR      61  41  48 SE6       30.29R
LEADVILLE      MOCLDY    49  33  54 N6        30.42R
MONARCH PASS   FAIR      46  27  46 NW12      30.68R
SALIDA         MOCLDY    67  43  41 SE14G20   30.33R
SUNLIGHT       FAIR      48  32  53 W8        30.53R
WILKERSON PASS MOCLDY    43  39  87 S12       30.56R
$$

COZ069>075-170400-
...SAN LUIS VALLEY/SANGRE DE CRISTO MOUNTAINS...

CITY           SKY/WX    TMP DP  RH WIND       PRES   REMARKS
ALAMOSA        MOCLDY    61  42  49 S3        30.24R
DEL NORTE      FAIR      63  35  34 CALM      30.30R
LA VETA PASS   NOT AVBL
SAGUACHE       CLOUDY    64  32  29 N3        30.29R
$$

COZ035-036-038>040-170400-
...NORTHERN COLORADO FRONT RANGE...

CITY           SKY/WX    TMP DP  RH WIND       PRES   REMARKS
DENVER INTL AP FAIR      65  46  50 S6        30.17R
DMNS CITY PARK   N/A     63  48  57 E9        30.18R
AURORA         MOCLDY    61  48  63 S8        30.20R
FRONT RANGE AP PTCLDY    66  50  55 CALM      30.19R
ERIE MUNI ARPT MOCLDY    67  51  56 CALM      30.20S
BOULDER MUN AP FAIR      68  50  52 CALM      30.16R
CENTENNIAL     FAIR      62  45  53 CALM      30.21R
BROOMFIELD     MOCLDY    66  50  55 CALM      30.19R
FORT COLLINS   FAIR      64  53  67 SW3       30.15R
LONGMONT       FAIR      64  52  65 CALM      30.17R
$$

COZ041-046-047-076>085-087-088-170400-
...PIKES PEAK/PALMER DIVIDE AND SOUTHERN FOOTHILLS...

CITY           SKY/WX    TMP DP  RH WIND       PRES   REMARKS
COLO. SPRINGS  MOCLDY    63  51  65 W6        30.25R
A. F. ACADEMY  LGT RAIN  61  50  67 N8        30.25R
SCHRIEVER AFB  FAIR      62  49  61 N7        30.24R
CHEYENNE MTN   MOCLDY    58  49  70 NW9       30.23R
ELLICOTT       FAIR     N/A N/A N/A E8        30.22R THUNDER
FALCON         FAIR      59  46  62 NW7       30.28R
FORT CARSON    FAIR      58  54  86 NW8       30.21R
LIMON          FAIR      55  52  89 N3        30.18R
MONUMENT HILL  MOCLDY    55  50  82 CALM      30.30R
CANON CITY     CLEAR     66  52  59 E3        30.17R
WALSENBURG     MOCLDY    66  48  52 N3        30.21R
TRINIDAD       FAIR      65  51  60 E3        30.17R
$$

COZ042>045-048>051-090-091-170400-
...NORTHEAST COLORADO...

CITY           SKY/WX    TMP DP  RH WIND       PRES   REMARKS
GREELEY ARPT   FAIR      63  56  78 CALM      30.14R
AKRON          FAIR      63  49  60 NE7       30.13R
BURLINGTON     FAIR      64  55  72 N5        30.10R
WRAY           NOT AVBL
YUMA           FAIR      61  43  51 NE5       30.11R
STERLING       FAIR      63  54  72 S5        30.10R
HOLYOKE        FAIR      63  55  77 N3        30.09R
FORT MORGAN    FAIR      64  49  58 CALM      30.13R
$$

COZ086-089-092>099-170400-
...SOUTHEAST COLORADO...

CITY           SKY/WX    TMP DP  RH WIND       PRES   REMARKS
PUEBLO         FAIR      70  51  51 NE9       30.12R
LA JUNTA       FAIR      70  52  52 NE7       30.10R
LAMAR          FAIR      64  55  72 NE3       30.05R
SPRINGFIELD      N/A     63  57  81 CALM      30.10R
$$




USA.gov is the U.S. government's official web portal to all federal, state and local government web resources and services.